Modesto, CA

8:54 AM PDT on July 24, 2017 (GMT -0700)
Modesto City-County-Sham

Weather History for KMOD - October, 2012

Change the Weather History Date:

Friday, October 5, 2012

  Actual Average Record
Temperature  
Mean Temperature 68 °F -  
Max Temperature 78 °F 84 °F 98 °F (1947)
Min Temperature 57 °F 55 °F 40 °F (1969)
Degree Days  
Heating Degree Days 0 1  
Month to date heating degree days 0 2  
Since 1 July heating degree days 0 5  
Cooling Degree Days 3 5  
Month to date cooling degree days 51 27  
Year to date cooling degree days 1666 1639  
Growing Degree Days 18 (Base 50)    
Moisture  
Dew Point 52 °F    
Average Humidity 61    
Maximum Humidity 80    
Minimum Humidity 42    
Precipitation  
Precipitation 0.00 in 0.02 in 0.68 in (2011)
Month to date precipitation T 0.07  
Year to date precipitation 6.85 9.10  
Since 1 July precipitation T  
Snow  
Snow 0.00 in - 0.00 in (2002)
Month to date snowfall 0.0  
Since 1 July snowfall 0.0  
Since 1 September snowfall 0.0  
Snow Depth -    
Sea Level Pressure  
Sea Level Pressure 30.08 in    
Wind  
Wind Speed 7 mph (NNW)    
Max Wind Speed 15 mph    
Max Gust Speed 18 mph    
Visibility 10 miles    
Events      
T = Trace of Precipitation, MM = Missing Value Source: NWS Daily Summary

Daily Weather History Graph

Daily Weather History Graph

Search for Another Location

Airport or City:

Trip Planner

Search our weather history database for the weather conditions in past years. The results will help you decide how hot, cold, wet, or windy it might be!

Date:

Astronomy

Oct. 05, 2012 Rise Set
Actual Time 7:03 AM PDT 6:40 PM PDT
Civil Twilight 6:37 AM PDT 7:06 PM PDT
Nautical Twilight 6:06 AM PDT 7:36 PM PDT
Astronomical Twilight 5:36 AM PDT 8:06 PM PDT
Moon 10:13 PM PDT (10/5) 12:09 PM PDT (10/5)
Length of Visible Light 12h 28m
Length of Day
11h 36m
Waning Gibbous, 73% of the Moon is Illuminated
Oct 5
Waning Gibbous
Oct 8
Last Quarter
Oct 15
New
Oct 21
First Quarter
Oct 29
Full

Hourly Weather History & Observations

Time (PDT) Temp. Dew Point Humidity Pressure Visibility Wind Dir Wind Speed Gust Speed Precip Events Conditions
12:53 AM 62.1 °F 48.0 °F 60% 30.08 in 10.0 mi North 3.5 mph - N/A   Clear
1:53 AM 61.0 °F 48.9 °F 64% 30.09 in 10.0 mi NNW 4.6 mph - N/A   Clear
2:53 AM 61.0 °F 50.0 °F 67% 30.09 in 10.0 mi NNW 10.4 mph - N/A   Clear
3:53 AM 60.1 °F 50.0 °F 69% 30.09 in 10.0 mi NNW 6.9 mph - N/A   Clear
4:53 AM 60.1 °F 51.1 °F 72% 30.10 in 10.0 mi NNW 5.8 mph - N/A   Clear
5:53 AM 59.0 °F 50.0 °F 72% 30.11 in 10.0 mi Variable 5.8 mph - N/A   Clear
6:53 AM 57.9 °F 50.0 °F 75% 30.12 in 10.0 mi NNW 5.8 mph - N/A   Clear
7:53 AM 57.9 °F 51.1 °F 78% 30.14 in 10.0 mi North 5.8 mph - N/A   Clear
8:53 AM 60.1 °F 52.0 °F 75% 30.14 in 10.0 mi NNW 8.1 mph - N/A   Clear
10:53 AM 68.0 °F 54.0 °F 61% 30.14 in 10.0 mi NW 10.4 mph - N/A   Clear
11:53 AM 72.0 °F 52.0 °F 49% 30.12 in 10.0 mi WNW 9.2 mph - N/A   Clear
12:53 PM 73.0 °F 53.1 °F 49% 30.11 in 10.0 mi Variable 5.8 mph - N/A   Clear
1:53 PM 75.0 °F 52.0 °F 44% 30.07 in 10.0 mi Variable 3.5 mph - N/A   Clear
2:53 PM 78.1 °F 53.1 °F 42% 30.05 in 10.0 mi Variable 4.6 mph - N/A   Clear
3:53 PM 75.9 °F 52.0 °F 43% 30.04 in 10.0 mi NNW 9.2 mph - N/A   Clear
4:53 PM 77.0 °F 53.1 °F 43% 30.03 in 10.0 mi WNW 10.4 mph - N/A   Clear
5:53 PM 73.0 °F 53.1 °F 49% 30.04 in 10.0 mi NNW 10.4 mph - N/A   Clear
6:53 PM 71.1 °F 52.0 °F 51% 30.04 in 10.0 mi NW 11.5 mph - N/A   Clear
7:53 PM 69.1 °F 51.1 °F 53% 30.04 in 10.0 mi NW 10.4 mph - N/A   Clear
8:53 PM 66.9 °F 52.0 °F 59% 30.05 in 10.0 mi NW 9.2 mph - N/A   Clear
9:53 PM 64.0 °F 52.0 °F 65% 30.05 in 10.0 mi NW 8.1 mph - N/A   Clear
10:53 PM 63.0 °F 52.0 °F 67% 30.06 in 10.0 mi NNW 6.9 mph - N/A   Clear
11:53 PM 62.1 °F 52.0 °F 70% 30.06 in 10.0 mi NNW 4.6 mph - N/A   Clear